Location: Caltech
(34.1382°N, 118.1253°W)
Time: 06:56:22
(UTC-07:00)

Aureole 2 Rocket - Visible Passes

Search period start: 28 March 2017 00:00
Search period end: 07 April 2017 00:00
Orbit: 330 x 579 km, 73.9° (Epoch: 26 March)

Date Brightness Start Highest point End Pass type
(mag) Time Alt. Az. Time Alt. Az. Time Alt. Az.
28 Mar 2.6 05:21:50 48° W 05:22:11 50° WNW 05:25:30 10° N visible
29 Mar 3.4 04:48:40 45° NE 04:48:40 45° NE 04:51:05 10° NNE visible
30 Mar 5.2 04:15:20 17° NE 04:15:20 17° NE 04:16:19 10° NE visible
31 Mar 4.6 05:15:37 14° NNW 05:15:37 14° NNW 05:16:27 10° NNW visible
01 Apr 5.0 04:42:01 13° N 04:42:01 13° N 04:42:26 10° N visible
